Wind_Speed
38 38 38 37 37 37 37 37 37 37 37 37 37 37 37 37 38 38 39 40 40 41 43 43 44 44 45 47 48 49 50 52 52 53 55 56 57 58 60 61 63 65 67
38 38 37 37 37 37 37 37 37 37 36 37 37 37 37 37 38 38 39 40 41 42 43 43 44 45 46 48 49 51 52 53 55 56 57 58 59 61 62 64 66 68 69
37 37 36 36 36 36 36 36 36 36 36 36 37 37 37 37 38 38 39 41 41 42 43 44 45 46 47 49 51 52 54 56 58 58 59 60 61 64 65 66 67 69 70
36 36 36 35 35 35 35 35 35 35 36 36 36 36 36 37 38 39 40 41 41 42 43 44 45 47 49 50 52 54 56 58 59 60 61 62 64 65 67 67 68 69 70
35 35 35 35 35 34 34 34 35 35 35 35 35 36 36 37 38 39 40 40 41 42 43 45 47 48 50 52 54 56 57 59 60 62 63 64 65 67 67 69 69 69 69
34 34 34 34 34 34 34 34 34 34 34 35 35 35 36 37 38 39 40 41 41 43 44 46 48 50 52 53 55 57 58 60 62 63 64 66 67 67 68 69 69 69 67
33 33 33 33 33 33 32 32 33 33 34 34 34 35 36 37 38 39 40 41 42 43 45 47 49 51 53 54 55 57 60 62 63 65 66 67 67 67 68 68 68 67 66
32 32 32 32 32 32 32 32 33 33 33 33 34 35 36 37 38 39 40 41 43 45 46 48 50 52 53 55 56 58 60 62 64 65 66 66 66 67 67 67 67 66 65
32 32 31 32 32 32 32 32 33 33 33 34 34 35 36 37 38 40 41 42 44 45 47 49 51 52 54 56 57 59 61 63 64 65 65 65 66 66 67 67 67 66 64
31 31 31 31 31 31 31 31 32 32 33 33 34 35 36 38 39 40 42 43 45 46 48 50 51 53 55 57 59 61 62 63 63 63 63 64 65 66 66 67 67 65 62
32 31 30 30 30 31 31 31 32 32 32 33 34 36 37 38 39 41 42 44 45 47 49 50 52 54 56 58 60 61 62 62 62 62 63 64 64 64 65 65 64 61 58
32 31 30 30 31 31 31 31 32 32 32 33 34 36 37 38 39 41 43 45 46 47 49 50 52 54 57 59 60 61 62 62 61 62 62 63 63 63 63 62 59 57 54
31 31 31 30 30 30 31 31 31 32 33 34 35 36 37 38 40 42 44 45 46 47 49 51 53 56 58 59 60 61 60 60 61 61 61 62 62 61 60 58 55 52 49
30 30 30 30 30 30 30 31 31 32 33 34 35 36 38 39 41 42 44 45 46 48 50 52 55 57 58 59 59 59 59 59 60 60 61 61 60 59 56 53 49 46 44
30 30 29 29 30 30 30 31 32 32 33 34 35 37 38 40 41 43 44 46 47 49 51 53 55 56 57 58 58 58 58 59 60 60 60 59 58 55 51 48 45 42 40
30 29 29 29 29 30 31 31 32 33 33 35 36 38 39 41 42 44 45 47 48 50 52 54 55 56 56 57 57 58 58 59 60 60 58 56 53 50 46 44 42 40 37
29 29 29 29 29 30 31 31 32 33 34 35 37 38 40 41 43 44 46 47 49 51 53 54 54 55 56 57 57 58 58 59 59 57 54 50 48 45 43 41 39 37 35
29 29 29 29 30 31 31 32 33 34 35 36 37 39 40 42 43 45 47 48 50 52 53 54 54 55 55 56 57 57 57 57 55 52 48 45 44 42 40 38 36 34 32
29 29 29 29 30 30 31 32 33 34 35 36 38 40 41 43 44 46 47 49 51 52 53 53 54 55 56 56 56 56 55 53 51 48 45 43 42 41 38 35 33 32 29
28 29 29 29 30 30 31 32 33 34 35 37 39 40 41 43 45 47 48 50 51 51 53 54 54 55 56 55 55 54 52 49 47 44 42 41 40 38 36 33 31 29 26
28 28 28 29 29 30 31 32 33 35 36 38 39 41 42 44 46 48 50 51 51 52 53 54 54 55 55 55 53 51 48 46 44 42 41 40 38 36 34 32 29 26 22
27 27 28 28 29 30 31 33 34 35 37 38 40 42 43 45 47 49 50 51 52 52 53 54 53 54 54 53 50 47 45 43 41 41 40 38 36 34 32 29 26 22 19
27 27 28 29 30 31 32 33 34 36 37 39 41 43 45 47 48 50 51 52 52 52 53 52 52 53 52 49 47 45 43 41 40 39 38 36 34 32 29 25 22 19 17
27 28 29 30 31 31 32 34 35 37 39 41 42 44 46 48 50 51 52 52 52 52 52 52 51 50 48 47 45 43 41 40 39 38 35 33 31 28 24 21 19 16 15
28 28 29 30 31 32 33 34 36 38 40 42 43 45 47 49 50 51 52 52 51 51 52 51 49 48 47 46 44 42 41 39 37 35 32 30 27 24 21 19 17 15 13
28 29 29 30 31 33 34 36 37 39 41 43 45 47 48 50 51 51 51 51 51 51 51 49 48 47 46 44 42 41 39 37 34 31 28 26 24 22 20 17 15 14 13
Wind_Direction
257 260 262 263 265 266 268 270 272 274 276 278 280 282 284 286 287 289 290 292 294 295 297 299 300 301 302 303 304 304 305 306 306 307 307 307 307 307 307 307 306 305 305
257 259 260 262 264 266 268 270 272 274 276 278 280 282 284 286 287 289 290 292 294 296 297 299 300 301 302 303 304 305 305 306 307 308 308 308 308 308 307 307 306 306 305
256 258 260 262 265 267 268 270 271 274 276 278 279 281 283 285 287 288 290 293 294 295 297 298 300 301 302 303 304 305 306 307 308 308 308 308 308 308 308 307 307 307 306
256 258 260 262 264 265 267 269 271 274 276 278 279 281 283 285 287 289 291 293 294 295 297 299 300 301 303 304 305 305 306 307 308 308 309 309 309 308 308 308 308 308 307
256 258 260 261 263 265 267 269 272 274 276 278 279 281 283 285 287 290 291 293 294 296 298 299 300 302 303 304 305 305 307 308 308 309 309 309 309 309 309 309 309 309 308
256 258 260 262 263 265 267 270 272 274 276 278 280 281 283 286 288 290 292 294 295 297 298 299 301 302 303 304 305 306 308 309 309 309 309 309 309 309 310 310 311 310 310
256 258 260 262 263 266 268 270 273 275 277 278 280 282 284 286 289 291 293 294 296 297 299 300 301 303 304 305 306 307 309 310 310 310 310 310 310 311 311 312 312 312 312
256 258 260 262 264 266 269 272 273 275 277 279 281 283 286 288 290 291 294 295 297 298 300 301 302 304 305 306 307 308 310 310 309 309 310 311 311 312 313 313 313 313 313
256 258 261 263 265 267 269 271 274 276 278 280 282 284 287 289 291 293 295 296 298 299 301 302 303 304 306 307 308 309 310 310 309 310 311 312 312 313 313 314 314 314 313
256 258 261 264 266 267 269 272 274 276 278 280 283 285 288 290 292 294 296 298 299 300 302 303 304 305 306 308 309 310 310 310 310 311 311 312 313 313 314 314 314 314 314
257 259 262 264 266 268 271 273 276 278 280 282 284 287 289 291 293 296 298 299 301 302 303 304 305 306 308 309 310 310 310 310 311 311 312 313 314 314 314 315 315 315 315
257 260 262 264 267 269 272 274 277 278 280 283 286 288 291 293 295 297 299 301 302 303 304 305 306 307 309 310 310 310 311 311 312 312 313 314 314 314 315 316 316 316 316
257 260 262 264 267 270 273 275 277 279 282 284 287 289 292 294 297 299 301 302 303 304 305 306 307 309 310 310 310 311 311 312 312 313 314 314 315 315 315 316 316 316 317
256 259 262 265 268 271 273 275 278 281 283 286 288 291 293 296 299 301 302 303 304 306 307 308 309 310 311 311 311 312 312 313 313 314 315 315 315 316 316 316 317 317 317
257 259 262 265 269 271 274 276 279 281 285 287 290 293 295 298 300 302 303 304 305 307 308 309 310 311 312 312 312 312 313 314 314 315 315 316 316 316 317 317 317 317 317
257 260 263 266 269 272 275 277 280 283 286 289 292 294 297 299 301 303 305 305 306 308 310 311 311 312 312 313 313 313 313 314 315 315 315 316 316 317 317 317 317 317 317
257 260 264 267 270 273 275 278 282 285 288 290 293 296 299 301 303 305 306 307 308 310 311 311 311 312 313 313 314 314 314 315 315 316 316 317 317 318 319 318 318 318 318
257 261 264 268 271 274 277 280 283 286 289 292 294 297 300 302 304 306 307 308 309 311 311 312 312 313 314 314 315 315 315 316 317 317 317 317 318 319 319 319 319 320 320
258 262 265 270 273 276 279 282 285 288 291 294 296 299 302 304 306 308 309 309 310 311 312 313 313 314 315 315 315 316 316 317 317 317 317 318 319 319 319 320 320 320 320
260 263 267 271 274 277 281 284 287 290 293 296 298 301 303 305 307 309 310 311 311 312 313 313 313 314 315 315 316 316 316 317 317 317 317 318 319 319 319 320 320 319 319
261 265 268 272 276 279 283 286 289 292 295 297 300 302 304 307 308 310 311 312 312 312 313 313 313 314 315 316 316 316 316 317 317 317 317 318 318 318 318 319 319 318 317
262 266 270 275 278 282 285 289 291 294 296 299 301 303 306 308 310 311 312 312 312 313 313 314 314 315 316 316 316 316 316 316 316 316 317 317 317 317 317 317 317 316 316
265 269 273 276 280 284 288 290 293 296 298 301 303 305 307 309 310 312 313 313 313 313 314 314 315 315 316 316 317 317 316 316 316 316 316 316 317 317 317 316 316 315 315
268 272 276 279 283 286 289 292 295 297 300 302 304 306 308 309 311 312 313 313 313 313 314 314 315 315 316 316 316 316 315 315 315 315 315 316 316 316 316 316 316 315 314
272 275 279 282 285 288 291 294 296 299 301 303 305 307 309 310 311 312 313 313 313 314 314 314 314 314 315 315 315 314 314 314 314 314 314 314 315 315 314 314 313 312 311
275 278 281 284 287 290 293 295 297 299 301 303 306 308 310 311 312 312 313 313 313 314 314 314 314 314 314 314 313 313 313 314 314 313 313 312 312 312 311 310 308 307 306
Height
5711 5712 5713 5713 5714 5714 5714 5714 5713 5713 5712 5711 5710 5709 5707 5705 5703 5701 5699 5696 5693 5690 5686 5682 5678 5674 5670 5665 5660 5655 5650 5644 5640 5635 5628 5621 5614 5607 5600 5593 5585 5578 5570
5701 5702 5703 5704 5705 5705 5705 5705 5705 5704 5704 5703 5701 5700 5699 5697 5695 5693 5690 5687 5684 5681 5677 5673 5669 5664 5660 5655 5650 5644 5638 5633 5627 5622 5616 5608 5601 5593 5586 5578 5569 5561 5552
5692 5693 5694 5695 5696 5696 5696 5696 5696 5696 5695 5694 5693 5692 5690 5689 5686 5684 5681 5678 5675 5672 5668 5664 5659 5655 5650 5645 5639 5633 5627 5621 5614 5608 5602 5594 5587 5578 5570 5562 5553 5543 5534
5683 5684 5686 5686 5687 5687 5688 5688 5687 5687 5686 5686 5685 5683 5682 5680 5678 5675 5673 5669 5666 5662 5659 5654 5649 5645 5640 5634 5628 5622 5615 5608 5601 5594 5588 5580 5572 5563 5554 5545 5537 5527 5517
5674 5675 5677 5677 5678 5679 5679 5679 5679 5679 5678 5677 5676 5675 5673 5671 5669 5666 5664 5660 5657 5653 5649 5644 5639 5634 5629 5623 5617 5610 5603 5596 5588 5581 5573 5565 5556 5547 5538 5528 5520 5511 5501
5665 5666 5668 5669 5669 5670 5670 5670 5670 5670 5669 5669 5668 5666 5665 5663 5660 5657 5654 5651 5648 5644 5639 5634 5629 5624 5618 5611 5605 5597 5590 5582 5575 5567 5558 5549 5540 5530 5521 5511 5501 5493 5485
5656 5658 5659 5660 5661 5661 5662 5662 5662 5661 5661 5660 5659 5657 5656 5653 5651 5648 5645 5642 5638 5634 5629 5624 5619 5613 5606 5600 5593 5586 5577 5568 5560 5552 5543 5534 5524 5515 5506 5497 5486 5475 5466
5648 5649 5650 5651 5652 5653 5653 5654 5653 5653 5652 5651 5650 5648 5647 5644 5642 5639 5636 5632 5628 5624 5619 5613 5608 5601 5595 5588 5582 5574 5565 5556 5547 5538 5529 5519 5509 5499 5489 5480 5470 5462 5452
5639 5641 5642 5643 5644 5644 5645 5645 5644 5644 5643 5642 5641 5639 5637 5635 5633 5630 5626 5623 5618 5613 5608 5602 5596 5590 5583 5577 5570 5562 5553 5543 5533 5523 5514 5504 5494 5484 5474 5465 5455 5446 5438
5631 5632 5634 5635 5635 5636 5636 5636 5636 5635 5634 5633 5632 5630 5628 5626 5623 5620 5617 5613 5608 5603 5598 5592 5585 5579 5571 5564 5556 5548 5539 5530 5520 5511 5501 5491 5480 5470 5459 5449 5440 5431 5422
5622 5624 5625 5626 5627 5627 5627 5627 5627 5626 5625 5624 5623 5621 5619 5617 5613 5610 5606 5602 5598 5592 5586 5580 5573 5567 5559 5551 5543 5534 5525 5516 5507 5498 5488 5478 5468 5457 5447 5436 5426 5417 5408
5614 5616 5617 5618 5618 5619 5619 5619 5618 5618 5617 5616 5614 5612 5609 5607 5604 5600 5596 5592 5586 5581 5575 5569 5562 5555 5547 5539 5530 5521 5511 5502 5493 5484 5475 5465 5455 5445 5435 5425 5415 5405 5397
5606 5608 5609 5609 5610 5610 5610 5610 5610 5609 5608 5607 5605 5603 5600 5597 5594 5590 5586 5581 5575 5570 5564 5557 5550 5543 5534 5525 5516 5507 5498 5489 5480 5471 5462 5453 5443 5433 5423 5414 5405 5396 5388
5598 5599 5600 5601 5602 5602 5602 5602 5601 5601 5599 5598 5596 5593 5590 5587 5584 5579 5575 5570 5564 5559 5552 5545 5538 5530 5521 5512 5503 5494 5485 5476 5467 5459 5450 5440 5430 5421 5412 5403 5395 5387 5380
5590 5591 5592 5593 5594 5594 5594 5593 5593 5592 5590 5588 5586 5584 5581 5577 5573 5569 5564 5559 5553 5547 5540 5534 5526 5518 5509 5500 5491 5482 5473 5464 5455 5446 5437 5428 5418 5409 5401 5393 5386 5379 5373
5582 5583 5584 5585 5585 5585 5585 5585 5583 5583 5581 5579 5577 5574 5571 5567 5563 5558 5553 5548 5541 5535 5529 5522 5514 5505 5497 5488 5479 5470 5461 5452 5443 5434 5425 5416 5407 5399 5391 5384 5377 5371 5366
5574 5575 5576 5577 5577 5577 5576 5576 5575 5573 5571 5569 5567 5564 5560 5556 5552 5547 5542 5536 5530 5523 5517 5509 5501 5493 5484 5476 5467 5458 5449 5440 5431 5422 5413 5405 5397 5390 5383 5376 5370 5364 5359
5566 5567 5568 5568 5568 5568 5568 5567 5566 5564 5562 5560 5557 5553 5550 5546 5541 5536 5531 5525 5518 5511 5504 5497 5489 5481 5472 5463 5455 5446 5437 5428 5419 5410 5402 5395 5388 5382 5375 5369 5363 5357 5353
5557 5559 5559 5560 5560 5559 5559 5558 5556 5555 5553 5550 5547 5543 5539 5535 5530 5525 5519 5513 5507 5499 5492 5484 5477 5468 5460 5451 5443 5434 5425 5417 5409 5401 5394 5387 5380 5374 5368 5362 5357 5352 5347
5549 5550 5551 5551 5551 5550 5550 5548 5547 5545 5543 5540 5537 5533 5529 5524 5519 5514 5507 5501 5494 5487 5480 5472 5464 5456 5448 5439 5431 5423 5415 5407 5399 5392 5386 5379 5373 5367 5361 5356 5351 5347 5342
5541 5542 5542 5542 5542 5541 5540 5539 5537 5535 5533 5530 5526 5522 5518 5514 5508 5502 5496 5489 5482 5475 5468 5460 5452 5444 5436 5428 5419 5412 5404 5397 5390 5384 5378 5372 5366 5360 5355 5350 5346 5341 5338
5532 5533 5534 5533 5533 5532 5531 5529 5527 5525 5522 5519 5516 5511 5507 5502 5497 5491 5484 5477 5470 5463 5455 5448 5440 5432 5424 5416 5408 5401 5395 5388 5382 5376 5370 5364 5358 5353 5348 5344 5340 5337 5334
5524 5525 5525 5525 5524 5523 5521 5520 5517 5515 5512 5509 5505 5501 5496 5491 5485 5478 5472 5464 5457 5450 5443 5435 5428 5420 5413 5405 5398 5392 5386 5379 5374 5368 5362 5357 5351 5346 5342 5338 5335 5332 5330
5516 5516 5516 5515 5515 5513 5512 5510 5507 5505 5501 5498 5494 5489 5484 5479 5473 5466 5459 5452 5445 5437 5430 5423 5416 5409 5402 5395 5389 5383 5377 5371 5365 5360 5355 5350 5345 5340 5336 5333 5331 5329 5327
5507 5507 5507 5506 5505 5504 5502 5500 5497 5494 5491 5487 5483 5478 5472 5467 5460 5453 5446 5439 5432 5426 5419 5412 5405 5398 5392 5385 5379 5373 5368 5362 5357 5352 5347 5343 5339 5335 5332 5330 5328 5326 5325
5498 5498 5498 5497 5495 5494 5492 5489 5487 5483 5480 5476 5471 5466 5460 5454 5448 5441 5434 5427 5420 5414 5407 5400 5394 5388 5381 5375 5369 5364 5359 5354 5349 5345 5341 5337 5334 5331 5329 5326 5325 5323 5322